Location: Chakepay
(13.3931°S, 72.1925°W)
Time: 15:25:24
(UTC+00:00)

Cosmos 2322 - Pass Details

Date: 15 November 2019
Orbit: 841 x 854 km, 71.0° (Epoch: 09 December)

Event Time Altitude Azimuth Distance (km) Brightness Sun altitude
Rises 00:04:56 0° 185° (S) 3,423 7.3 -16.7°
Reaches altitude 10° 00:07:32 10° 177° (S) 2,485 6.4 -17.2°
Maximum altitude 00:12:53 41° 108° (ESE) 1,219 4.2 -18.4°
Enters shadow 00:14:35 33° 69° (ENE) 1,400 4.3 -18.8°
